GW3324 Weather Reports


time (UTC)temp
F
wind
direction
speed
knots
gust
knots
rain 1hr
in
rain 24hr
in
rain mn
in
humidity
%
barometer
mb
20260504003507 60 5 0.9 5.2 0.00 0.00 0.00 46 1014.0
20260504003014 60 5 0.9 9.6 0.00 0.00 0.00 44 1013.9
20260504002504 61 5 0.9 9.6 0.00 0.00 0.00 44 1013.8
20260504002010 61 5 3.5 9.6 0.00 0.00 0.00 44 1013.9
20260504001521 61 5 1.7 8.7 0.00 0.00 0.00 45 1013.9
20260504001007 61 5 2.6 8.7 0.00 0.00 0.00 45 1014.0
20260504000507 62 5 1.7 7.0 0.00 0.00 0.00 43 1013.9
20260504000037 62 5 2.6 7.0 0.00 0.00 0.00 42 1013.8
20260503235509 62 5 3.5 7.8 0.00 0.00 0.00 43 1013.9
20260503235007 62 5 3.5 10.4 0.00 0.00 0.00 42 1014.0
20260503234521 62 5 1.7 13.0 0.00 0.00 0.00 42 1014.0
20260503234004 62 5 2.6 13.0 0.00 0.00 0.00 41 1013.9
20260503233504 63 5 2.6 7.8 0.00 0.00 0.00 41 1014.0
20260503233010 63 5 2.6 10.4 0.00 0.00 0.00 41 1013.8
20260503232505 63 5 3.5 11.3 0.00 0.00 0.00 40 1014.0
20260503232004 63 5 4.3 11.3 0.00 0.00 0.00 39 1014.0
20260503231516 63 5 1.7 8.7 0.00 0.00 0.00 39 1013.9
20260503231005 63 5 2.6 11.3 0.00 0.00 0.00 40 1013.9
20260503230506 63 5 3.5 11.3 0.00 0.00 0.00 39 1014.0
20260503230022 63 5 3.5 11.3 0.00 0.00 0.00 38 1014.1
20260503225511 63 5 2.6 9.6 0.00 0.00 0.00 39 1014.3
20260503225010 63 5 4.3 9.6 0.00 0.00 0.00 38 1014.3
20260503224528 63 5 4.3 7.8 0.00 0.00 0.00 38 1014.5
20260503224011 63 5 1.7 13.9 0.00 0.00 0.00 37 1014.6
20260503223507 63 5 2.6 13.9 0.00 0.00 0.00 37 1014.7
20260503223023 64 5 2.6 9.6 0.00 0.00 0.00 36 1014.9
20260503222504 64 5 2.6 11.3 0.00 0.00 0.00 38 1014.9
20260503222004 64 5 3.5 11.3 0.00 0.00 0.00 37 1015.0
20260503221515 64 5 3.5 8.7 0.00 0.00 0.00 36 1015.0
20260503221007 64 5 3.5 11.3 0.00 0.00 0.00 35 1015.0
20260503220508 64 5 3.5 11.3 0.00 0.00 0.00 35 1014.9
20260503220021 64 5 4.3 13.0 0.00 0.00 0.00 34 1015.0
20260503215507 65 5 5.2 13.0 0.00 0.00 0.00 34 1015.4
20260503215008 65 5 7.0 13.9 0.00 0.00 0.00 34 1015.4
20260503214530 65 5 3.5 13.9 0.00 0.00 0.00 36 1015.5
20260503214007 65 5 5.2 12.2 0.00 0.00 0.00 35 1015.5
20260503213513 65 5 4.3 8.7 0.00 0.00 0.00 35 1015.6
20260503213028 65 5 2.6 10.4 0.00 0.00 0.00 36 1015.7
20260503212517 65 5 4.3 12.2 0.00 0.00 0.00 34 1015.8
20260503212011 65 5 3.5 12.2 0.00 0.00 0.00 36 1015.9
20260503211524 66 5 5.2 11.3 0.00 0.00 0.00 35 1015.6
20260503211010 66 5 3.5 11.3 0.00 0.00 0.00 37 1015.6
20260503210503 66 5 4.3 12.2 0.00 0.00 0.00 35 1015.5
20260503210011 66 5 5.2 12.2 0.00 0.00 0.00 33 1015.6
20260503205503 65 5 4.3 11.3 0.00 0.00 0.00 35 1015.7
20260503205003 65 5 3.5 11.3 0.00 0.00 0.00 35 1015.9
20260503204508 64 5 3.5 13.9 0.00 0.00 0.00 35 1016.1
20260503204003 64 5 4.3 13.9 0.00 0.00 0.00 34 1016.1
20260503203502 65 5 4.3 13.0 0.00 0.00 0.00 34 1016.1
20260503203004 65 5 2.6 13.0 0.00 0.00 0.00 34 1016.2
20260503202504 65 5 3.5 13.0 0.00 0.00 0.00 35 1016.3
20260503202004 64 5 5.2 13.0 0.00 0.00 0.00 36 1016.4
20260503201508 65 5 5.2 11.3 0.00 0.00 0.00 33 1016.4
20260503201004 65 5 4.3 9.6 0.00 0.00 0.00 34 1016.5
20260503200501 65 5 1.7 8.7 0.00 0.00 0.00 33 1016.6
20260503200003 65 5 1.7 8.7 0.00 0.00 0.00 34 1016.6
20260503195502 66 5 2.6 11.3 0.00 0.00 0.00 35 1016.8
20260503195002 66 5 3.5 11.3 0.00 0.00 0.00 31 1017.0
20260503194503 66 5 6.1 11.3 0.00 0.00 0.00 34 1017.2
20260503194003 65 5 6.1 11.3 0.00 0.00 0.00 34 1017.3
20260503193504 65 5 1.7 8.7 0.00 0.00 0.00 38 1017.5
20260503193004 65 5 3.5 8.7 0.00 0.00 0.00 37 1017.6
20260503192504 65 5 4.3 8.7 0.00 0.00 0.00 34 1017.7
20260503192005 65 5 2.6 9.6 0.00 0.00 0.00 36 1017.7
20260503191506 64 5 3.5 9.6 0.00 0.00 0.00 36 1017.8
20260503191003 64 5 2.6 7.8 0.00 0.00 0.00 36 1017.8
20260503190506 64 5 3.5 10.4 0.00 0.00 0.00 38 1017.9
20260503190012 64 5 2.6 11.3 0.00 0.00 0.00 32 1018.0
20260503185504 64 5 3.5 13.0 0.00 0.00 0.00 34 1018.2
20260503185004 64 5 7.8 13.0 0.00 0.00 0.00 33 1018.1
20260503184506 63 5 5.2 8.7 0.00 0.00 0.00 36 1018.2
20260503184011 62 5 3.5 13.0 0.00 0.00 0.00 35 1018.3
20260503183502 63 5 2.6 13.0 0.00 0.00 0.00 35 1018.5
20260503183004 63 5 5.2 15.6 0.00 0.00 0.00 40 1018.7
20260503182503 63 5 5.2 15.6 0.00 0.00 0.00 36 1018.7
20260503182004 62 5 4.3 11.3 0.00 0.00 0.00 41 1018.7
20260503181505 62 5 3.5 11.3 0.00 0.00 0.00 36 1018.7
20260503181004 62 5 3.5 11.3 0.00 0.00 0.00 36 1018.7
20260503180504 62 5 0.9 9.6 0.00 0.00 0.00 36 1018.8
20260503180009 62 5 1.7 12.2 0.00 0.00 0.00 34 1018.9
20260503175503 62 5 6.1 12.2 0.00 0.00 0.00 33 1018.9
20260503175003 63 5 2.6 12.2 0.00 0.00 0.00 37 1019.0
20260503174513 62 5 6.1 12.2 0.00 0.00 0.00 39 1019.1
20260503174010 62 5 2.6 8.7 0.00 0.00 0.00 39 1019.2
20260503173505 62 5 1.7 11.3 0.00 0.00 0.00 36 1019.2
20260503173003 61 5 3.5 11.3 0.00 0.00 0.00 37 1019.3
20260503172502 62 5 2.6 8.7 0.00 0.00 0.00 41 1019.4
20260503172005 62 5 2.6 9.6 0.00 0.00 0.00 34 1019.4
20260503171505 61 5 1.7 9.6 0.00 0.00 0.00 42 1019.5
20260503171007 61 5 5.2 9.6 0.00 0.00 0.00 35 1019.7
20260503170508 61 5 3.5 9.6 0.00 0.00 0.00 38 1019.7
20260503151008 54 5 1.7 7.0 0.00 0.00 0.00 45 1021.1
20260503150507 54 5 1.7 8.7 0.00 0.00 0.00 45 1021.0
20260503131004 46 5 1.7 5.2 0.00 0.00 0.00 65 1021.1
20260503130506 46 5 1.7 5.2 0.00 0.00 0.00 66 1021.0
20260503110506 34 5 0.0 0.0 0.00 0.00 0.00 89 1020.3
20260503090508 35 5 0.0 0.0 0.00 0.00 0.00 88 1019.9
20260503081535 35 5 0.0 0.0 0.00 0.00 0.00 87 1019.8
20260503081007 35 5 0.0 0.0 0.00 0.00 0.00 87 1019.8
20260503080510 35 5 0.0 0.0 0.00 0.00 0.00 87 1019.8
20260503072508 36 5 0.0 0.0 0.00 0.00 0.00 85 1019.6
20260503072002 36 5 0.0 0.0 0.00 0.00 0.00 85 1019.5
20260503071503 36 5 0.0 0.0 0.00 0.00 0.00 85 1019.5
20260503071003 36 5 0.0 0.0 0.00 0.00 0.00 84 1019.5
20260503070504 36 5 0.0 0.0 0.00 0.00 0.00 84 1019.6
20260503055003 39 5 0.0 0.0 0.00 0.00 0.00 79 1019.9
20260503054514 39 5 0.0 0.0 0.00 0.00 0.00 79 1019.9
20260503054002 39 5 0.0 0.0 0.00 0.00 0.00 78 1019.8
20260503053502 39 5 0.0 0.0 0.00 0.00 0.00 78 1019.8
20260503053006 39 5 0.0 0.0 0.00 0.00 0.00 77 1019.8
20260503052509 39 5 0.0 0.0 0.00 0.00 0.00 78 1019.7
20260503052006 39 5 0.0 0.0 0.00 0.00 0.00 77 1019.8
20260503051508 39 5 0.0 0.0 0.00 0.00 0.00 78 1019.7
20260503051006 40 5 0.0 0.0 0.00 0.00 0.00 76 1019.7
20260503050507 40 5 0.0 0.9 0.00 0.00 0.00 77 1019.8
20260503050016 40 5 0.0 0.9 0.00 0.00 0.00 77 1019.8
20260503045506 40 5 0.0 0.0 0.00 0.00 0.00 76 1019.8
20260503045010 40 5 0.0 0.0 0.00 0.00 0.00 75 1019.7
20260503044536 41 5 0.0 0.0 0.00 0.00 0.00 75 1019.7
20260503044002 41 5 0.0 0.0 0.00 0.00 0.00 75 1019.7
20260503043502 41 5 0.0 0.0 0.00 0.00 0.00 74 1019.8
20260503043007 41 5 0.0 0.0 0.00 0.00 0.00 74 1019.8
20260503042502 41 5 0.0 0.0 0.00 0.00 0.00 72 1019.8
20260503042006 41 5 0.0 0.0 0.00 0.00 0.00 72 1019.7
20260503041552 42 5 0.0 0.0 0.00 0.00 0.00 72 1019.6
20260503041005 42 5 0.0 0.0 0.00 0.00 0.00 72 1019.6
20260503040509 42 5 0.0 0.0 0.00 0.00 0.00 72 1019.7
20260503040014 43 5 0.0 0.0 0.00 0.00 0.00 69 1019.8
20260503035506 43 5 0.0 0.0 0.00 0.00 0.00 70 1019.7
20260503035014 43 5 0.0 0.0 0.00 0.00 0.00 68 1019.7
20260503034521 44 5 0.0 0.0 0.00 0.00 0.00 68 1019.7
20260503034007 44 5 0.0 0.0 0.00 0.00 0.00 68 1019.7
20260503033508 44 5 0.0 0.0 0.00 0.00 0.00 69 1019.6
20260503033022 45 5 0.0 0.0 0.00 0.00 0.00 68 1019.6
20260503032502 45 5 0.0 0.0 0.00 0.00 0.00 67 1019.5
20260503032002 45 5 0.0 0.0 0.00 0.00 0.00 67 1019.5
20260503031512 46 5 0.0 0.0 0.00 0.00 0.00 66 1019.5
20260503031003 46 5 0.0 0.0 0.00 0.00 0.00 63 1019.6
20260503030504 46 5 0.0 0.9 0.00 0.00 0.00 63 1019.5
20260503030014 46 5 0.0 0.9 0.00 0.00 0.00 64 1019.5
20260503025503 47 5 0.0 1.7 0.00 0.00 0.00 64 1019.5
20260503025006 47 5 0.0 1.7 0.00 0.00 0.00 62 1019.4
20260503024514 47 5 0.0 0.9 0.00 0.00 0.00 61 1019.3
20260503024006 47 5 0.0 0.9 0.00 0.00 0.00 59 1019.4
20260503023510 48 5 0.0 0.9 0.00 0.00 0.00 59 1019.3
20260503023024 48 5 0.0 0.9 0.00 0.00 0.00 60 1019.3
20260503022506 48 5 0.0 0.9 0.00 0.00 0.00 61 1019.2
20260503022015 48 5 0.0 0.9 0.00 0.00 0.00 60 1019.2
20260503021524 48 5 0.0 0.9 0.00 0.00 0.00 61 1019.1
20260503021010 48 5 0.0 0.9 0.00 0.00 0.00 63 1018.9
20260503020506 48 5 0.0 0.9 0.00 0.00 0.00 65 1018.8
20260503020006 48 5 0.0 0.9 0.00 0.00 0.00 62 1018.8
20260503015502 47 5 0.0 0.9 0.00 0.00 0.00 66 1018.8
20260503015005 48 5 0.0 0.0 0.00 0.00 0.00 70 1018.7
20260503014511 48 5 0.0 0.0 0.00 0.00 0.00 67 1018.6
20260503014006 48 5 0.0 0.0 0.00 0.00 0.00 67 1018.6
20260503013515 48 5 0.0 0.0 0.00 0.00 0.00 68 1018.5
20260503013025 48 5 0.0 0.0 0.00 0.00 0.00 67 1018.4
20260503012507 49 5 0.0 0.0 0.00 0.00 0.00 66 1018.3
20260503012016 49 5 0.0 0.0 0.00 0.00 0.00 66 1018.2
20260503011524 49 5 0.0 0.0 0.00 0.00 0.00 63 1018.2
20260503011008 50 5 0.0 0.0 0.00 0.00 0.00 64 1018.1
20260503010509 50 5 0.0 0.0 0.00 0.00 0.00 63 1018.0
20260503010024 51 5 0.0 0.9 0.00 0.00 0.00 63 1017.9
20260503005509 51 5 0.0 1.7 0.00 0.00 0.00 61 1017.9
20260503005010 51 5 0.0 1.7 0.00 0.00 0.00 61 1017.8
20260503004512 51 5 0.0 1.7 0.00 0.00 0.00 59 1017.8
20260503004005 52 5 0.0 1.7 0.00 0.00 0.00 58 1017.7